Weather History for West Palm Beach, FL

Change the Weather History Date:

Friday, August 1, 2014

  Actual Average Record
Temperature  
Mean Temperature 84 °F 83 °F  
Max Temperature 91 °F 91 °F 96 °F (1990)
Min Temperature 77 °F 76 °F 67 °F (1919)
Degree Days  
Heating Degree Days 0 0  
Month to date heating degree days 0 0  
Since 1 June heating degree days 0 0  
Since 1 July heating degree days 0 0  
Cooling Degree Days 19 18  
Month to date cooling degree days 19 18  
Year to date cooling degree days 2423 2166  
Since 1 June cooling degree days 1071 1057  
Growing Degree Days 34 (Base 50)    
Moisture  
Dew Point 75 °F    
Average Humidity 77    
Maximum Humidity 94    
Minimum Humidity 59    
Precipitation  
Precipitation 0.00 in 0.22 in 4.72 in (1915)
Month to date precipitation 0.00 0.22  
Year to date precipitation 33.43 32.99  
Snow  
Snow 0.00 in - - ()
Month to date snowfall 0.0  
Since 1 June snowfall 0.0  
Since 1 July snowfall 0.0  
Snow Depth 0.00 in    
Sea Level Pressure  
Sea Level Pressure 29.96 in    
Wind  
Wind Speed 8 mph (SE)    
Max Wind Speed 17 mph    
Max Gust Speed 24 mph    
Visibility 10 miles    
Events      
T = Trace of Precipitation, MM = Missing Value Source: NWS Daily Summary

Daily Weather History Graph

Daily Weather History Graph

Search for Another Location

Airport:

Trip Planner

Search our weather history database for the weather conditions in past years. The results will help you decide how hot, cold, wet, or windy it might be!

Date:

Astronomy

Aug. 01, 2014 Rise Set
Actual Time 6:45 AM EDT 8:07 PM EDT
Civil Twilight 6:20 AM EDT 8:32 PM EDT
Nautical Twilight 5:50 AM EDT 9:02 PM EDT
Astronomical Twilight 5:19 AM EDT 9:33 PM EDT
Moon 11:33 AM EDT (8/1) 11:28 PM EDT (8/1)
Length of Visible Light 14h 12m
Length of Day
13h 22m
Waxing Crescent, 27% of the Moon is Illuminated
Aug 1
Waxing Crescent
Aug 3
First Quarter
Aug 10
Full
Aug 17
Last Quarter
Aug 25
New

Hourly Weather History & Observations

Time (EDT) Temp. Heat Index Dew Point Humidity Pressure Visibility Wind Dir Wind Speed Gust Speed Precip Events Conditions
12:53 AM 79.0 °F - 75.9 °F 90% 29.99 in 10.0 mi Calm Calm - N/A   Mostly Cloudy
1:53 AM 80.1 °F 85.1 °F 75.0 °F 85% 29.98 in 10.0 mi SE 4.6 mph - N/A   Mostly Cloudy
2:53 AM 80.1 °F 85.4 °F 75.9 °F 87% 29.96 in 10.0 mi SSE 4.6 mph - N/A   Mostly Cloudy
3:53 AM 80.1 °F 85.4 °F 75.9 °F 87% 29.94 in 10.0 mi SSE 4.6 mph - N/A   Scattered Clouds
4:53 AM 80.1 °F 85.4 °F 75.9 °F 87% 29.93 in 10.0 mi SE 6.9 mph - N/A   Scattered Clouds
5:53 AM 78.1 °F - 75.0 °F 90% 29.94 in 10.0 mi West 3.5 mph - N/A   Scattered Clouds
6:53 AM 77.0 °F - 75.0 °F 94% 29.95 in 10.0 mi NW 4.6 mph - N/A   Mostly Cloudy
7:53 AM 80.1 °F 85.4 °F 75.9 °F 87% 29.97 in 10.0 mi Calm Calm - N/A   Mostly Cloudy
8:53 AM 84.9 °F 95.3 °F 77.0 °F 77% 29.97 in 10.0 mi SSW 5.8 mph - N/A   Mostly Cloudy
9:53 AM 87.1 °F 96.3 °F 75.0 °F 67% 29.98 in 10.0 mi South 6.9 mph - N/A   Mostly Cloudy
10:53 AM 89.1 °F 99.1 °F 75.0 °F 63% 29.99 in 10.0 mi SSE 8.1 mph - N/A   Mostly Cloudy
11:53 AM 86.0 °F 93.0 °F 73.0 °F 65% 29.99 in 10.0 mi West 3.5 mph - N/A   Mostly Cloudy
12:53 PM 90.0 °F 100.2 °F 75.0 °F 61% 29.98 in 10.0 mi ESE 11.5 mph - N/A   Scattered Clouds
1:53 PM 86.0 °F 93.8 °F 73.9 °F 67% 29.98 in 10.0 mi West 11.5 mph 18.4 mph N/A   Mostly Cloudy
2:53 PM 89.1 °F 98.0 °F 73.9 °F 61% 29.96 in 10.0 mi East 9.2 mph - N/A   Mostly Cloudy
3:53 PM 90.0 °F 99.0 °F 73.9 °F 59% 29.94 in 10.0 mi East 12.7 mph - N/A   Mostly Cloudy
4:53 PM 89.1 °F 99.1 °F 75.0 °F 63% 29.94 in 10.0 mi ESE 13.8 mph - N/A   Mostly Cloudy
5:53 PM 87.8 °F 97.6 °F 75.2 °F 66% 29.94 in 10.0 mi ESE 10.4 mph - N/A   Mostly Cloudy
6:53 PM 87.1 °F 96.3 °F 75.0 °F 67% 29.94 in 10.0 mi ESE 12.7 mph - N/A   Mostly Cloudy
7:53 PM 86.0 °F 95.1 °F 75.0 °F 70% 29.95 in 10.0 mi ESE 12.7 mph - N/A   Mostly Cloudy
8:53 PM 84.9 °F 92.1 °F 73.9 °F 69% 29.96 in 10.0 mi ESE 10.4 mph - N/A   Mostly Cloudy
9:53 PM 84.9 °F 93.3 °F 75.0 °F 72% 29.98 in 10.0 mi East 9.2 mph - N/A   Scattered Clouds
10:53 PM 84.0 °F 91.2 °F 73.9 °F 72% 29.99 in 10.0 mi ESE 5.8 mph - N/A   Scattered Clouds
11:53 PM 82.9 °F 89.4 °F 73.9 °F 74% 29.99 in 10.0 mi SE 3.5 mph - N/A   Partly Cloudy